| time (UTC) | temp C | wind direction | speed KPH | gust KPH | rain 1hr cm | rain 24hr cm | rain mn cm | humidity % | barometer mb |
| 20260504110519 | 10 | 88 | 0.0 | 1.6 | 0.00 | 0.00 | 0.00 | 56 | 1012.7 |
| 20260504100511 | 7 | 72 | 0.0 | 3.2 | 0.00 | 0.00 | 0.00 | 63 | 1012.6 |
| 20260504081547 | 8 | 157 | 0.0 | 3.2 | 0.00 | 0.00 | 0.00 | 60 | 1013.0 |
| 20260504081048 | 8 | 148 | 0.0 | 3.2 | 0.00 | 0.00 | 0.00 | 60 | 1012.9 |
| 20260504080546 | 8 | 160 | 0.0 | 3.2 | 0.00 | 0.00 | 0.00 | 60 | 1012.9 |
| 20260504050517 | 9 | 138 | 0.0 | 3.2 | 0.00 | 0.00 | 0.00 | 58 | 1013.1 |
| 20260504050014 | 9 | 234 | 0.0 | 1.6 | 0.00 | 0.00 | 0.00 | 58 | 1013.1 |
| 20260504045515 | 9 | 234 | 0.0 | 1.6 | 0.00 | 0.00 | 0.00 | 57 | 1013.1 |
| 20260504045013 | 9 | 253 | 0.0 | 3.2 | 0.00 | 0.00 | 0.00 | 57 | 1013.1 |
| 20260504044513 | 9 | 243 | 0.0 | 3.2 | 0.00 | 0.00 | 0.00 | 57 | 1013.1 |
| 20260504044012 | 9 | 265 | 0.0 | 1.6 | 0.00 | 0.00 | 0.00 | 57 | 1013.1 |
| 20260504043510 | 10 | 127 | 0.0 | 1.6 | 0.00 | 0.00 | 0.00 | 57 | 1013.1 |
| 20260504043010 | 10 | 132 | 0.0 | 4.8 | 0.00 | 0.00 | 0.00 | 55 | 1013.2 |
| 20260504042509 | 10 | 250 | 0.0 | 11.3 | 0.00 | 0.00 | 0.00 | 55 | 1013.1 |
| 20260504042006 | 10 | 260 | 0.0 | 1.6 | 0.00 | 0.00 | 0.00 | 56 | 1013.1 |
| 20260504041506 | 10 | 272 | 0.0 | 9.7 | 0.00 | 0.00 | 0.00 | 56 | 1013.2 |
| 20260504041005 | 10 | 264 | 1.6 | 9.7 | 0.00 | 0.00 | 0.00 | 55 | 1013.1 |
| 20260504040504 | 10 | 304 | 0.0 | 3.2 | 0.00 | 0.00 | 0.00 | 56 | 1013.0 |
| 20260504040003 | 10 | 235 | 0.0 | 8.0 | 0.00 | 0.00 | 0.00 | 56 | 1013.0 |
| 20260504035503 | 10 | 224 | 0.0 | 4.8 | 0.00 | 0.00 | 0.00 | 57 | 1013.0 |
| 20260504035001 | 9 | 281 | 0.0 | 4.8 | 0.00 | 0.00 | 0.00 | 56 | 1012.8 |
| 20260504034501 | 9 | 266 | 0.0 | 1.6 | 0.00 | 0.00 | 0.00 | 57 | 1012.8 |
| 20260504034100 | 9 | 212 | 0.0 | 1.6 | 0.00 | 0.00 | 0.00 | 58 | 1012.8 |
| 20260504033559 | 9 | 231 | 0.0 | 1.6 | 0.00 | 0.00 | 0.00 | 58 | 1012.8 |
| 20260504033116 | 9 | 197 | 0.0 | 0.0 | 0.00 | 0.00 | 0.00 | 58 | 1012.7 |
| 20260504032559 | 9 | 193 | 0.0 | 0.0 | 0.00 | 0.00 | 0.00 | 58 | 1012.8 |
| 20260504032058 | 9 | 193 | 0.0 | 1.6 | 0.00 | 0.00 | 0.00 | 58 | 1012.7 |
| 20260504031603 | 9 | 231 | 0.0 | 1.6 | 0.00 | 0.00 | 0.00 | 58 | 1012.7 |
| 20260504031100 | 8 | 254 | 0.0 | 1.6 | 0.00 | 0.00 | 0.00 | 58 | 1012.7 |
| 20260504030555 | 8 | 238 | 0.0 | 3.2 | 0.00 | 0.00 | 0.00 | 59 | 1012.6 |
| 20260504030055 | 8 | 231 | 0.0 | 3.2 | 0.00 | 0.00 | 0.00 | 59 | 1012.6 |
| 20260504025554 | 9 | 221 | 0.0 | 0.0 | 0.00 | 0.00 | 0.00 | 59 | 1012.6 |
| 20260504025054 | 9 | 221 | 0.0 | 1.6 | 0.00 | 0.00 | 0.00 | 58 | 1012.6 |
| 20260504024600 | 9 | 221 | 0.0 | 1.6 | 0.00 | 0.00 | 0.00 | 58 | 1012.6 |
| 20260504024052 | 8 | 221 | 0.0 | 3.2 | 0.00 | 0.00 | 0.00 | 58 | 1012.7 |
| 20260504023556 | 8 | 260 | 0.0 | 3.2 | 0.00 | 0.00 | 0.00 | 60 | 1012.6 |
| 20260504023051 | 7 | 254 | 0.0 | 0.0 | 0.00 | 0.00 | 0.00 | 62 | 1012.7 |
| 20260504022551 | 7 | 254 | 0.0 | 0.0 | 0.00 | 0.00 | 0.00 | 62 | 1012.7 |
| 20260504022050 | 7 | 254 | 0.0 | 0.0 | 0.00 | 0.00 | 0.00 | 62 | 1012.6 |
| 20260504021554 | 7 | 254 | 0.0 | 1.6 | 0.00 | 0.00 | 0.00 | 61 | 1012.7 |
| 20260504021052 | 7 | 254 | 0.0 | 0.0 | 0.00 | 0.00 | 0.00 | 62 | 1012.8 |
| 20260504020547 | 7 | 254 | 0.0 | 0.0 | 0.00 | 0.00 | 0.00 | 62 | 1012.7 |
| 20260504020050 | 7 | 254 | 0.0 | 0.0 | 0.00 | 0.00 | 0.00 | 62 | 1012.7 |
| 20260504015546 | 8 | 254 | 0.0 | 0.0 | 0.00 | 0.00 | 0.00 | 61 | 1012.7 |
| 20260504015047 | 8 | 254 | 0.0 | 0.0 | 0.00 | 0.00 | 0.00 | 62 | 1012.7 |
| 20260504014546 | 8 | 254 | 0.0 | 0.0 | 0.00 | 0.00 | 0.00 | 61 | 1012.7 |
| 20260504014046 | 8 | 254 | 0.0 | 0.0 | 0.00 | 0.00 | 0.00 | 60 | 1012.7 |
| 20260504013545 | 8 | 254 | 0.0 | 0.0 | 0.00 | 0.00 | 0.00 | 60 | 1012.5 |
| 20260504013048 | 8 | 254 | 0.0 | 0.0 | 0.00 | 0.00 | 0.00 | 61 | 1012.6 |
| 20260504012546 | 8 | 254 | 0.0 | 0.0 | 0.00 | 0.00 | 0.00 | 60 | 1012.6 |
| 20260504012044 | 8 | 254 | 0.0 | 0.0 | 0.00 | 0.00 | 0.00 | 59 | 1012.4 |
| 20260504011543 | 8 | 254 | 0.0 | 0.0 | 0.00 | 0.00 | 0.00 | 58 | 1012.5 |
| 20260504011040 | 8 | 254 | 0.0 | 0.0 | 0.00 | 0.00 | 0.00 | 58 | 1012.5 |
| 20260504010540 | 8 | 254 | 0.0 | 0.0 | 0.00 | 0.00 | 0.00 | 58 | 1012.6 |
| 20260504010040 | 8 | 254 | 0.0 | 0.0 | 0.00 | 0.00 | 0.00 | 59 | 1012.5 |
| 20260504005539 | 8 | 254 | 0.0 | 0.0 | 0.00 | 0.00 | 0.00 | 59 | 1012.5 |
| 20260504005039 | 9 | 254 | 0.0 | 0.0 | 0.00 | 0.00 | 0.00 | 58 | 1012.5 |
| 20260504004546 | 9 | 254 | 0.0 | 0.0 | 0.00 | 0.00 | 0.00 | 56 | 1012.5 |
| 20260504004037 | 10 | 254 | 0.0 | 0.0 | 0.00 | 0.00 | 0.00 | 55 | 1012.4 |
| 20260504003538 | 10 | 254 | 0.0 | 0.0 | 0.00 | 0.00 | 0.00 | 53 | 1012.4 |
| 20260504003036 | 10 | 254 | 0.0 | 0.0 | 0.00 | 0.00 | 0.00 | 52 | 1012.2 |
| 20260504002536 | 11 | 254 | 0.0 | 0.0 | 0.00 | 0.00 | 0.00 | 53 | 1012.2 |
| 20260504002037 | 11 | 254 | 0.0 | 1.6 | 0.00 | 0.00 | 0.00 | 51 | 1012.1 |
| 20260504001635 | 11 | 254 | 0.0 | 1.6 | 0.00 | 0.00 | 0.00 | 51 | 1012.0 |
| 20260504001034 | 12 | 226 | 0.0 | 4.8 | 0.00 | 0.00 | 0.00 | 50 | 1011.9 |
| 20260504000534 | 12 | 221 | 0.0 | 4.8 | 0.00 | 0.00 | 0.00 | 48 | 1011.9 |
| 20260504000034 | 12 | 238 | 0.0 | 6.4 | 0.00 | 0.00 | 0.00 | 48 | 1011.8 |
| 20260503235532 | 12 | 231 | 0.0 | 9.7 | 0.00 | 0.00 | 0.00 | 47 | 1011.7 |
| 20260503235032 | 13 | 255 | 0.0 | 6.4 | 0.00 | 0.00 | 0.00 | 47 | 1011.8 |
| 20260503234531 | 13 | 257 | 0.0 | 4.8 | 0.00 | 0.00 | 0.00 | 47 | 1011.7 |
| 20260503234031 | 13 | 236 | 0.0 | 8.0 | 0.00 | 0.00 | 0.00 | 46 | 1011.7 |
| 20260503233530 | 13 | 266 | 3.2 | 9.7 | 0.00 | 0.00 | 0.00 | 44 | 1011.5 |
| 20260503233031 | 13 | 260 | 1.6 | 12.9 | 0.00 | 0.00 | 0.00 | 44 | 1011.5 |
| 20260503232530 | 14 | 204 | 3.2 | 14.5 | 0.00 | 0.00 | 0.00 | 43 | 1011.5 |
| 20260503232027 | 14 | 259 | 4.8 | 14.5 | 0.00 | 0.00 | 0.00 | 43 | 1011.5 |
| 20260503231527 | 14 | 307 | 6.4 | 16.1 | 0.00 | 0.00 | 0.00 | 43 | 1011.6 |
| 20260503231026 | 14 | 263 | 4.8 | 16.1 | 0.00 | 0.00 | 0.00 | 44 | 1011.6 |
| 20260503230527 | 14 | 246 | 3.2 | 11.3 | 0.00 | 0.00 | 0.00 | 42 | 1011.4 |
| 20260503230032 | 15 | 249 | 1.6 | 14.5 | 0.00 | 0.00 | 0.00 | 43 | 1011.4 |
| 20260503225524 | 15 | 256 | 4.8 | 14.5 | 0.00 | 0.00 | 0.00 | 41 | 1011.4 |
| 20260503225023 | 15 | 246 | 3.2 | 12.9 | 0.00 | 0.00 | 0.00 | 44 | 1011.4 |
| 20260503224523 | 15 | 270 | 3.2 | 14.5 | 0.00 | 0.00 | 0.00 | 44 | 1011.3 |
| 20260503224021 | 15 | 221 | 4.8 | 14.5 | 0.00 | 0.00 | 0.00 | 43 | 1011.4 |
| 20260503223524 | 15 | 226 | 6.4 | 14.5 | 0.00 | 0.00 | 0.00 | 41 | 1011.3 |
| 20260503223019 | 15 | 259 | 3.2 | 14.5 | 0.00 | 0.00 | 0.00 | 41 | 1011.3 |
| 20260503222519 | 15 | 255 | 3.2 | 14.5 | 0.00 | 0.00 | 0.00 | 42 | 1011.2 |
| 20260503222018 | 15 | 253 | 4.8 | 16.1 | 0.00 | 0.00 | 0.00 | 41 | 1011.3 |
| 20260503221517 | 15 | 238 | 4.8 | 16.1 | 0.00 | 0.00 | 0.00 | 42 | 1011.4 |
| 20260503221017 | 15 | 243 | 4.8 | 14.5 | 0.00 | 0.00 | 0.00 | 43 | 1011.2 |
| 20260503220516 | 15 | 254 | 4.8 | 14.5 | 0.00 | 0.00 | 0.00 | 42 | 1011.3 |
| 20260503220016 | 15 | 222 | 4.8 | 17.7 | 0.00 | 0.00 | 0.00 | 41 | 1011.3 |
| 20260503215514 | 15 | 274 | 1.6 | 16.1 | 0.00 | 0.00 | 0.00 | 42 | 1011.5 |
| 20260503215014 | 15 | 203 | 8.0 | 16.1 | 0.00 | 0.00 | 0.00 | 40 | 1011.3 |
| 20260503214515 | 15 | 303 | 3.2 | 17.7 | 0.00 | 0.00 | 0.00 | 42 | 1011.4 |
| 20260503214116 | 15 | 358 | 6.4 | 22.5 | 0.00 | 0.00 | 0.00 | 41 | 1011.3 |
| 20260503213512 | 15 | 248 | 6.4 | 22.5 | 0.00 | 0.00 | 0.00 | 42 | 1011.3 |
| 20260503213016 | 15 | 252 | 4.8 | 16.1 | 0.00 | 0.00 | 0.00 | 41 | 1011.2 |
| 20260503212509 | 15 | 252 | 4.8 | 19.3 | 0.00 | 0.00 | 0.00 | 42 | 1011.2 |
| 20260503212010 | 15 | 258 | 6.4 | 19.3 | 0.00 | 0.00 | 0.00 | 42 | 1011.2 |
| 20260503211508 | 15 | 278 | 6.4 | 19.3 | 0.00 | 0.00 | 0.00 | 42 | 1011.2 |
| 20260503211007 | 15 | 243 | 4.8 | 20.9 | 0.00 | 0.00 | 0.00 | 43 | 1011.2 |
| 20260503210507 | 15 | 243 | 8.0 | 20.9 | 0.00 | 0.00 | 0.00 | 41 | 1011.2 |
| 20260503210007 | 15 | 235 | 4.8 | 22.5 | 0.00 | 0.00 | 0.00 | 43 | 1011.3 |
| 20260503205509 | 15 | 232 | 8.0 | 22.5 | 0.00 | 0.00 | 0.00 | 41 | 1011.2 |
| 20260503205006 | 15 | 271 | 4.8 | 12.9 | 0.00 | 0.00 | 0.00 | 39 | 1011.2 |
| 20260503204506 | 15 | 237 | 6.4 | 12.9 | 0.00 | 0.00 | 0.00 | 43 | 1011.3 |
| 20260503204005 | 15 | 245 | 3.2 | 17.7 | 0.00 | 0.00 | 0.00 | 41 | 1011.3 |
| 20260503203506 | 15 | 226 | 6.4 | 17.7 | 0.00 | 0.00 | 0.00 | 41 | 1011.3 |
| 20260503203004 | 15 | 266 | 4.8 | 14.5 | 0.00 | 0.00 | 0.00 | 43 | 1011.3 |
| 20260503202502 | 15 | 279 | 4.8 | 16.1 | 0.00 | 0.00 | 0.00 | 41 | 1011.3 |
| 20260503202003 | 15 | 157 | 6.4 | 19.3 | 0.00 | 0.00 | 0.00 | 40 | 1011.4 |
| 20260503201601 | 15 | 208 | 4.8 | 19.3 | 0.00 | 0.00 | 0.00 | 43 | 1011.4 |
| 20260503201101 | 15 | 219 | 6.4 | 17.7 | 0.00 | 0.00 | 0.00 | 42 | 1011.5 |
| 20260503200558 | 15 | 240 | 8.0 | 24.1 | 0.00 | 0.00 | 0.00 | 39 | 1011.6 |
| 20260503200058 | 15 | 172 | 3.2 | 24.1 | 0.00 | 0.00 | 0.00 | 41 | 1011.7 |
| 20260503195557 | 15 | 233 | 8.0 | 19.3 | 0.00 | 0.00 | 0.00 | 40 | 1011.7 |
| 20260503195056 | 15 | 217 | 3.2 | 11.3 | 0.00 | 0.00 | 0.00 | 40 | 1011.7 |
| 20260503194555 | 15 | 289 | 3.2 | 17.7 | 0.00 | 0.00 | 0.00 | 44 | 1011.7 |
| 20260503194055 | 14 | 198 | 3.2 | 14.5 | 0.00 | 0.00 | 0.00 | 43 | 1011.8 |
| 20260503193554 | 14 | 263 | 3.2 | 12.9 | 0.00 | 0.00 | 0.00 | 41 | 1012.0 |
| 20260503193057 | 13 | 255 | 4.8 | 14.5 | 0.00 | 0.00 | 0.00 | 42 | 1012.2 |
| 20260503192551 | 14 | 212 | 4.8 | 19.3 | 0.00 | 0.00 | 0.00 | 41 | 1012.2 |
| 20260503192050 | 13 | 205 | 8.0 | 19.3 | 0.00 | 0.00 | 0.00 | 41 | 1012.2 |
| 20260503191550 | 15 | 297 | 6.4 | 16.1 | 0.00 | 0.00 | 0.00 | 41 | 1012.1 |
| 20260503191048 | 14 | 237 | 3.2 | 19.3 | 0.00 | 0.00 | 0.00 | 42 | 1012.2 |
| 20260503190648 | 14 | 224 | 8.0 | 19.3 | 0.00 | 0.00 | 0.00 | 41 | 1012.2 |
| 20260503190051 | 14 | 262 | 8.0 | 19.3 | 0.00 | 0.00 | 0.00 | 41 | 1012.4 |
| 20260503185543 | 14 | 252 | 4.8 | 22.5 | 0.00 | 0.00 | 0.00 | 44 | 1012.3 |
| 20260503185143 | 14 | 274 | 4.8 | 22.5 | 0.00 | 0.00 | 0.00 | 46 | 1012.4 |
| 20260503184555 | 13 | 242 | 6.4 | 16.1 | 0.00 | 0.00 | 0.00 | 44 | 1012.6 |
| 20260503184042 | 13 | 231 | 4.8 | 16.1 | 0.00 | 0.00 | 0.00 | 43 | 1012.6 |
| 20260503183540 | 13 | 236 | 4.8 | 16.1 | 0.00 | 0.00 | 0.00 | 43 | 1012.7 |
| 20260503183041 | 13 | 278 | 4.8 | 17.7 | 0.00 | 0.00 | 0.00 | 44 | 1012.7 |
| 20260503182543 | 13 | 244 | 6.4 | 17.7 | 0.00 | 0.00 | 0.00 | 44 | 1012.8 |
| 20260503182039 | 13 | 242 | 4.8 | 19.3 | 0.00 | 0.00 | 0.00 | 47 | 1012.6 |
| 20260503181538 | 13 | 260 | 8.0 | 19.3 | 0.00 | 0.00 | 0.00 | 42 | 1012.9 |
| 20260503181035 | 12 | 249 | 4.8 | 16.1 | 0.00 | 0.00 | 0.00 | 45 | 1012.8 |
| 20260503180634 | 12 | 217 | 6.4 | 16.1 | 0.00 | 0.00 | 0.00 | 44 | 1012.9 |
| 20260503180033 | 12 | 269 | 3.2 | 19.3 | 0.00 | 0.00 | 0.00 | 47 | 1012.9 |
| 20260503175531 | 12 | 268 | 3.2 | 19.3 | 0.00 | 0.00 | 0.00 | 44 | 1012.9 |
| 20260503175031 | 13 | 223 | 8.0 | 19.3 | 0.00 | 0.00 | 0.00 | 43 | 1012.9 |
| 20260503174539 | 13 | 270 | 3.2 | 16.1 | 0.00 | 0.00 | 0.00 | 45 | 1013.0 |
| 20260503174029 | 13 | 269 | 4.8 | 19.3 | 0.00 | 0.00 | 0.00 | 45 | 1013.1 |
| 20260503173526 | 12 | 264 | 4.8 | 19.3 | 0.00 | 0.00 | 0.00 | 46 | 1013.0 |
| 20260503173023 | 12 | 265 | 3.2 | 14.5 | 0.00 | 0.00 | 0.00 | 47 | 1012.9 |
| 20260503172523 | 12 | 216 | 6.4 | 14.5 | 0.00 | 0.00 | 0.00 | 44 | 1013.0 |
| 20260503172022 | 12 | 288 | 6.4 | 17.7 | 0.00 | 0.00 | 0.00 | 47 | 1013.0 |
| 20260503171520 | 12 | 222 | 6.4 | 14.5 | 0.00 | 0.00 | 0.00 | 47 | 1013.1 |
| 20260503171019 | 11 | 271 | 6.4 | 17.7 | 0.00 | 0.00 | 0.00 | 47 | 1013.0 |
| 20260503170519 | 11 | 178 | 6.4 | 20.9 | 0.00 | 0.00 | 0.00 | 48 | 1013.2 |
| 20260503150551 | 10 | 257 | 3.2 | 14.5 | 0.00 | 0.00 | 0.00 | 48 | 1013.9 |
| 20260503131027 | 8 | 271 | 6.4 | 19.3 | 0.00 | 0.00 | 0.00 | 61 | 1014.1 |
| 20260503130525 | 7 | 314 | 3.2 | 12.9 | 0.00 | 0.00 | 0.00 | 63 | 1014.1 |